FW8513 Weather Reports


Display with metric or nautical units.
time (UTC)temp
F
wind
direction
speed
MPH
gust
MPH
rain 1hr
in
rain 24hr
in
rain mn
in
humidity
%
barometer
mb
20260906054549 52 349 6.0 11.0 0.13 0.23 0.23 85 1023.4
20260906053058 53 336 8.0 12.0 0.10 0.20 0.20 85 1023.2
20260906051556 53 337 6.0 9.0 0.05 0.15 0.15 84 1023.0
20260906050051 54 26 4.0 8.0 0.01 0.11 0.11 83 1022.7
20260906044549 54 20 4.0 10.0 0.00 0.12 0.10 83 1022.3
20260906043046 54 24 6.0 12.0 0.01 0.12 0.10 82 1021.9
20260906041558 54 19 7.0 13.0 0.02 0.12 0.10 81 1021.9
20260906040050 54 24 9.0 15.0 0.02 0.12 0.10 79 1021.5
20260906034543 55 22 9.0 14.0 0.02 0.12 0.10 78 1021.6
20260906033050 56 31 5.0 11.0 0.01 0.11 0.09 75 1022.0
20260906031550 57 11 7.0 10.0 0.00 0.10 0.08 71 1021.9
20260906030051 57 5 7.0 11.0 0.00 0.10 0.08 69 1021.6
20260906024546 58 33 6.0 11.0 0.00 0.10 0.08 68 1020.8
20260906023050 58 26 7.0 12.0 0.00 0.10 0.08 67 1020.6
20260906021558 58 40 6.0 12.0 0.00 0.10 0.08 66 1020.4
20260906020104 59 11 7.0 14.0 0.00 0.10 0.08 65 1020.5
20260906014543 60 17 7.0 11.0 0.00 0.10 0.08 64 1020.6
20260906013056 60 26 8.0 13.0 0.00 0.10 0.08 62 1020.5
20260906011559 61 339 8.0 14.0 0.00 0.10 0.08 61 1020.3
20260906010044 62 24 8.0 15.0 0.00 0.10 0.08 60 1020.3
20260906004558 63 36 9.0 15.0 0.00 0.10 0.08 58 1020.3
20260906003046 63 34 7.0 14.0 0.00 0.10 0.08 58 1020.2
20260906001546 64 54 6.0 11.0 0.00 0.10 0.08 58 1020.3
20260906000052 64 28 8.0 13.0 0.00 0.10 0.08 57 1020.3
20260905234550 64 22 7.0 11.0 0.00 0.10 0.08 59 1020.4
20260905233043 64 43 6.0 12.0 0.00 0.10 0.08 58 1020.4
20260905231544 64 352 5.0 10.0 0.00 0.10 0.08 59 1020.6
20260905230054 64 65 4.0 10.0 0.00 0.10 0.08 59 1020.6
20260905224551 63 12 3.0 15.0 0.00 0.10 0.08 60 1020.6
20260905223053 63 21 7.0 13.0 0.00 0.10 0.08 61 1020.6
20260905221546 64 27 6.0 11.0 0.00 0.10 0.08 59 1020.8
20260905220043 63 34 2.0 8.0 0.00 0.10 0.08 61 1020.9
20260905214549 62 5 4.0 9.0 0.00 0.10 0.08 62 1020.9
20260905213043 62 27 5.0 12.0 0.00 0.10 0.08 64 1020.9
20260905211551 62 66 3.0 11.0 0.00 0.10 0.08 64 1020.9
20260905210058 62 27 6.0 11.0 0.00 0.10 0.08 65 1021.0
20260905204547 61 18 3.0 8.0 0.00 0.10 0.08 66 1020.9
20260905203044 60 0 4.0 8.0 0.01 0.10 0.08 67 1020.9
20260905201544 60 16 3.0 11.0 0.01 0.10 0.08 73 1020.9
20260905200042 59 55 5.0 11.0 0.01 0.10 0.08 76 1020.9
20260905194549 58 17 7.0 13.0 0.01 0.10 0.08 77 1020.7
20260905193047 57 36 6.0 11.0 0.00 0.09 0.07 77 1020.4
20260905191556 57 33 4.0 10.0 0.00 0.09 0.07 78 1020.7
20260905190056 57 37 5.0 10.0 0.00 0.09 0.07 79 1020.7
20260905184610 56 51 3.0 6.0 0.00 0.09 0.07 81 1020.9
20260905183051 56 51 3.0 7.0 0.00 0.09 0.07 81 1021.0
20260905181558 55 286 1.0 3.0 0.00 0.09 0.07 82 1021.1
20260905180053 55 286 1.0 3.0 0.00 0.09 0.07 83 1021.3
20260905174547 54 286 1.0 3.0 0.00 0.09 0.07 84 1021.4
20260905173053 54 286 1.0 7.0 0.00 0.09 0.07 85 1021.0
20260905171549 54 273 5.0 8.0 0.00 0.09 0.07 85 1021.4
20260905170043 54 51 1.0 3.0 0.00 0.09 0.07 85 1021.0
20260905164543 53 0 0.0 4.0 0.00 0.09 0.07 85 1020.8
20260905163053 53 51 4.0 6.0 0.01 0.09 0.07 85 1020.3
20260905161548 53 50 3.0 5.0 0.01 0.09 0.07 85 1020.9
20260905160049 52 47 3.0 6.0 0.01 0.09 0.07 85 1020.9
20260905154610 52 24 3.0 5.0 0.01 0.09 0.07 84 1021.1
20260905153048 52 321 3.0 8.0 0.00 0.08 0.06 84 1021.1
20260905151554 53 317 5.0 9.0 0.00 0.08 0.06 84 1020.9
20260905150051 52 128 0.0 6.0 0.00 0.08 0.06 84 1020.2
20260905144549 52 126 2.0 7.0 0.00 0.08 0.06 85 1020.4
20260905143056 51 124 6.0 10.0 0.00 0.08 0.06 85 1020.2
20260905141550 50 89 2.0 4.0 0.01 0.08 0.06 84 1020.1
20260905140049 50 80 7.0 10.0 0.03 0.08 0.06 84 1019.9
20260905134542 50 72 4.0 8.0 0.03 0.08 0.06 84 1020.2
20260905133052 51 51 3.0 5.0 0.03 0.08 0.06 83 1020.2
20260905131549 51 0 0.0 2.0 0.03 0.07 0.05 83 1020.7
20260905130053 50 0 0.0 2.0 0.01 0.05 0.03 82 1020.5
20260905124542 50 44 2.0 4.0 0.01 0.05 0.03 81 1020.3
20260905123057 51 44 1.0 3.0 0.02 0.05 0.03 79 1019.7
20260905121545 51 45 0.0 2.0 0.02 0.04 0.02 77 1020.0
20260905120047 51 45 1.0 3.0 0.02 0.04 0.02 76 1019.8
20260905114549 51 45 1.0 3.0 0.01 0.03 0.01 76 1020.0
20260905113050 51 0 0.0 4.0 0.00 0.02 0.00 76 1020.0
20260905111612 51 44 2.0 5.0 0.00 0.02 0.00 74 1019.4
20260905110043 52 43 1.0 4.0 0.00 0.02 0.00 72 1019.5
20260905104547 52 42 2.0 5.0 0.00 0.02 0.00 72 1019.3
20260905103048 53 19 4.0 5.0 0.00 0.02 0.00 68 1019.1
20260905101550 52 9 1.0 3.0 0.00 0.02 0.00 68 1019.2
20260905100048 52 5 0.0 3.0 0.00 0.02 0.00 70 1019.3
20260905094550 52 5 4.0 7.0 0.00 0.02 0.00 69 1018.4
20260905093044 52 45 2.0 4.0 0.00 0.02 0.00 69 1018.4
20260905091542 53 44 2.0 6.0 0.00 0.02 0.00 68 1017.6
20260905090049 53 17 3.0 5.0 0.00 0.02 0.00 67 1017.9
20260905084549 53 19 4.0 7.0 0.00 0.02 0.00 67 1018.0
20260905083042 52 50 2.0 5.0 0.00 0.02 0.00 66 1017.9
20260905081550 52 69 2.0 3.0 0.00 0.02 0.00 71 1017.8
20260905080058 52 0 0.0 2.0 0.00 0.02 0.00 72 1018.2
20260905074554 53 69 2.0 5.0 0.00 0.02 0.00 70 1017.8
20260905073047 52 76 0.0 3.0 0.00 0.02 0.00 69 1017.9
20260905071541 53 76 2.0 8.0 0.00 0.02 0.00 70 1017.7
20260905070054 54 331 2.0 4.0 0.00 0.02 0.00 67 1017.5
20260905064548 55 317 3.0 5.0 0.00 0.02 0.00 68 1017.7
20260905063044 55 311 2.0 9.0 0.00 0.02 0.00 67 1018.0
20260905061557 55 303 2.0 5.0 0.00 0.02 0.00 66 1017.8
20260905060057 54 300 3.0 9.0 0.00 0.02 0.00 66 1018.0